カタログに戻る

ION SCV-011

運用中科学PO
NORAD 56957·PAYLOAD·🇮🇹 Italy

打ち上げ Jun 12, 2023 から Vandenberg Space Force Base

Loading…

次のパス (今後24時間)

TLE

最新Source: Space-Track

元期: Sep 13, 2026, 23:47 UTC

1 56957U 23084AB  26256.99097399  .00004217  00000-0  15009-3 0  9997
2 56957  98.1357  92.5572 0008483  88.8090 271.4120 15.29582284179384

AllMySatでION SCV-011をリアルタイム追跡

Download on the App Store